This demonstration page uses our WeatherBlox Daily Observations layout. Learn more.

Left ArrowRight Arrow

40.92945, -100.16068

Hourly Observations for May 31, 2020

Temp ( °F °C ) Dew Point ( °F °C ) Humidity (%) Winds ( mph kmh ) Pressure ( in mb ) Visibility ( mi km ) Precip ( " mm )
12:15 am 00:15 Clear 60 15.4 53 11.6 78 78 E 12 19 30.11 1020 10 16.0934 0 0
12:35 am 00:35 Clear 59 15.2 53 11.7 80 80 E 13 20 30.11 1020 10 16.0934 0 0
12:55 am 00:55 Clear 59 15 53 11.8 81 81 E 12 19 30.13 1020 10 16.0934 0 0
1:15 am 01:15 Clear 59 15.1 54 12 82 82 ESE 13 20 30.11 1020 10 16.0934 0 0
1:35 am 01:35 Clear 59 15 54 12.2 83 83 ESE 12 19 30.11 1019 10 16.0934 0 0
1:55 am 01:55 Clear 59 15 54 12.3 84 84 ESE 14 22 30.1 1019 10 16.0934 0 0
2:15 am 02:15 Clear 58 14.6 54 12.3 86 86 ESE 16 26 30.09 1019 10 16.0934 0 0
2:35 am 02:35 Clear 58 14.5 55 12.5 88 88 ESE 14 22 30.08 1019 10 16.0934 0 0
2:55 am 02:55 Clear 58 14.4 55 12.5 88 88 ESE 16 26 30.07 1018 10 16.0934 0 0
3:15 am 03:15 Clear 57 14.1 55 12.5 90 90 ESE 12 19 30.07 1018 10 16.0934 0 0
3:35 am 03:35 Clear 58 14.3 55 12.6 90 90 ESE 10 17 30.06 1018 10 16.0934 0 0
3:55 am 03:55 Clear 58 14.5 55 12.8 90 90 ESE 12 19 30.06 1018 10 16.0934 0 0
4:15 am 04:15 Clear 58 14.6 55 13 90 90 ESE 14 22 30.06 1018 10 16.0934 0 0
4:35 am 04:35 Clear 58 14.6 55 12.9 90 90 ESE 13 20 30.06 1018 10 16.0934 0 0
4:55 am 04:55 Clear 58 14.6 55 12.9 90 90 SE 13 20 30.04 1017 10 16.0934 0 0
5:15 am 05:15 Clear 58 14.5 55 12.9 90 90 ESE 12 19 30.05 1018 10 16.0934 0 0
5:35 am 05:35 Clear 58 14.5 55 12.9 90 90 ESE 14 22 30.04 1017 10 16.0934 0 0
5:55 am 05:55 Clear 58 14.5 55 13 91 91 ESE 13 20 30.04 1017 10 16.0934 0 0
6:15 am 06:15 Sunny 58 14.2 55 13 93 93 ESE 14 22 30.04 1017 10 16.0934 0 0
6:35 am 06:35 Sunny 58 14.3 55 13 92 92 ESE 10 17 30.04 1017 10 16.0934 0 0
6:55 am 06:55 Sunny 58 14.5 55 13 91 91 ESE 13 20 30.05 1018 10 16.0934 0 0
7:15 am 07:15 Sunny 58 14.7 56 13.1 90 90 ESE 13 20 30.05 1018 10 16.0934 0 0
7:35 am 07:35 Sunny 60 15.5 56 13.4 87 87 ESE 12 19 30.04 1017 10 16.0934 0 0
7:55 am 07:55 Sunny 61 16.1 56 13.6 85 85 ESE 14 22 30.04 1017 10 16.0934 0 0
8:15 am 08:15 Sunny 62 16.7 57 14 84 84 SE 9 15 30.03 1017 10 16.0934 0 0
8:35 am 08:35 Sunny 65 18.5 57 14 75 75 SSE 13 20 30.01 1016 10 16.0934 0 0
8:55 am 08:55 Sunny 67 19.3 57 14.1 72 72 SSE 16 26 30.01 1016 10 16.0934 0 0
9:15 am 09:15 Sunny 68 20.1 57 14 68 68 SSE 17 28 29.99 1016 10 16.0934 0 0
9:35 am 09:35 Sunny 69 20.8 57 14.1 66 66 SSE 17 28 29.99 1015 10 16.0934 0 0
9:55 am 09:55 Sunny 72 22 58 14.6 63 63 S 15 24 29.96 1015 10 16.0934 0 0
10:15 am 10:15 Sunny 73 22.5 58 14.6 61 61 S 18 30 29.96 1015 10 16.0934 0 0
10:35 am 10:35 Sunny 74 23.5 59 15.1 59 59 S 20 31 29.94 1014 10 16.0934 0 0
10:55 am 10:55 Sunny 75 23.7 59 15 58 58 S 22 35 29.94 1014 10 16.0934 0 0
11:15 am 11:15 Sunny 74 23.3 59 15 60 60 S 18 30 29.93 1014 10 16.0934 0 0
11:35 am 11:35 Sunny 74 23.5 59 15.2 60 60 SSE 20 31 29.92 1013 10 16.0934 0 0
11:55 am 11:55 Sunny 79 26.2 61 16.2 54 54 S 21 33 29.9 1013 10 16.0934 0 0
12:15 pm 12:15 Sunny 80 26.6 61 16 52 52 S 22 35 29.9 1012 10 16.0934 0 0
12:35 pm 12:35 Sunny 80 26.8 61 16 52 52 SSW 23 37 29.89 1012 10 16.0934 0 0
12:55 pm 12:55 Sunny 81 27.1 62 16.5 52 52 S 21 33 29.89 1012 10 16.0934 0 0
1:15 pm 13:15 Sunny 82 27.5 61 16.2 50 50 S 23 37 29.88 1012 10 16.0934 0 0
1:35 pm 13:35 Sunny 83 28.1 62 16.5 49 49 S 17 28 29.87 1012 10 16.0934 0 0
1:55 pm 13:55 Sunny 81 27.4 61 16.3 51 51 SSW 22 35 29.88 1012 10 16.0934 0 0
2:15 pm 14:15 Sunny 82 27.7 61 16.1 49 49 S 18 30 29.87 1011 10 16.0934 0 0
2:35 pm 14:35 Sunny 82 27.8 61 16 49 49 S 22 35 29.87 1011 10 16.0934 0 0
2:55 pm 14:55 Sunny 79 26.3 59 14.9 50 50 S 20 31 29.87 1011 10 16.0934 0 0
3:15 pm 15:15 Sunny 79 26.1 58 14.6 49 49 S 22 35 29.87 1012 10 16.0934 0 0
3:35 pm 15:35 Sunny 81 27 59 15 48 48 S 23 37 29.85 1011 10 16.0934 0 0
3:55 pm 15:55 Sunny 82 27.8 59 15.2 46 46 S 20 31 29.85 1011 10 16.0934 0 0
4:15 pm 16:15 Sunny 82 27.8 59 15.1 46 46 S 23 37 29.84 1010 10 16.0934 0 0
4:35 pm 16:35 Sunny 83 28.6 60 15.6 45 45 S 25 41 29.83 1010 10 16.0934 0 0
4:55 pm 16:55 Sunny 83 28.1 60 15.5 46 46 SSE 21 33 29.82 1010 10 16.0934 0 0
5:15 pm 17:15 Sunny 83 28.5 59 15.2 44 44 S 20 31 29.81 1010 10 16.0934 0 0
5:35 pm 17:35 Sunny 83 28.6 60 15.6 45 45 SSE 20 31 29.8 1009 10 16.0934 0 0
5:55 pm 17:55 Sunny 84 29 60 15.6 44 44 SSE 23 37 29.79 1009 10 16.0934 0 0
6:15 pm 18:15 Sunny 84 29.1 60 15.5 44 44 SSE 21 33 29.78 1008 10 16.0934 0 0
6:35 pm 18:35 Sunny 85 29.3 59 15.1 42 42 SSE 22 35 29.77 1008 10 16.0934 0 0
6:55 pm 18:55 Sunny 85 29.5 57 14.1 39 39 SSE 25 41 29.76 1008 10 16.0934 0 0
7:15 pm 19:15 Sunny 84 28.9 57 14.1 40 40 SSE 24 39 29.77 1008 10 16.0934 0 0
7:35 pm 19:35 Sunny 83 28.4 57 14 41 41 SSE 20 31 29.77 1008 10 16.0934 0 0
7:55 pm 19:55 Sunny 82 27.9 57 14 43 43 SSE 22 35 29.78 1008 10 16.0934 0 0
8:15 pm 20:15 Sunny 81 27.2 57 14.1 45 45 SSE 18 30 29.79 1009 10 16.0934 0 0
8:35 pm 20:35 Sunny 80 26.6 58 14.2 47 47 SSE 20 31 29.8 1009 10 16.0934 0 0
8:55 pm 20:55 Sunny 79 26 58 14.4 49 49 SSE 18 30 29.81 1010 10 16.0934 0 0
9:15 pm 21:15 undefined 78 25.5 58 14.2 50 50 SSE 18 30 29.82 1010 N/A 0 0
9:35 pm 21:35 Clear 77 24.8 57 14.1 51 51 SSE 16 26 29.82 1010 10 16.0934 0 0
9:55 pm 21:55 Clear 76 24.7 57 14 51 51 SSE 17 28 29.82 1010 10 16.0934 0 0
10:15 pm 22:15 Clear 76 24.5 57 14 52 52 SSE 20 31 29.82 1010 10 16.0934 0 0
10:35 pm 22:35 Clear 76 24.2 58 14.2 54 54 SSE 18 30 29.84 1010 10 16.0934 0 0
10:55 pm 22:55 Clear 75 24 58 14.2 54 54 SSE 21 33 29.84 1010 10 16.0934 0 0
11:15 pm 23:15 Clear 75 23.8 58 14.2 55 55 S 21 33 29.84 1010 10 16.0934 0 0
11:35 pm 23:35 Clear 74 23.5 58 14.2 56 56 S 22 35 29.84 1011 10 16.0934 0 0
11:55 pm 23:55 Clear 74 23.3 57 14.1 56 56 S 21 33 29.83 1010 10 16.0934 0 0

Powered by AerisWeather